DW9584 Weather Reports


time (UTC)temp
F
wind
direction
speed
knots
gust
knots
rain 1hr
in
rain 24hr
in
rain mn
in
humidity
%
barometer
mb
20260906140025 70 360 0.0 2.6 0.00 0.00 0.00 78 1015.5
20260906134524 69 66 0.9 4.3 0.00 0.00 0.00 77 1015.6
20260906133028 69 15 0.9 3.5 0.00 0.00 0.00 79 1015.4
20260906131529 68 187 0.0 4.3 0.00 0.00 0.00 79 1015.4
20260906130035 67 356 0.0 2.6 0.00 0.00 0.00 80 1015.3
20260906124518 67 20 0.0 4.3 0.00 0.00 0.00 81 1015.3
20260906123015 66 63 0.0 2.6 0.00 0.00 0.00 84 1015.2
20260906121527 65 200 0.0 1.7 0.00 0.00 0.00 86 1015.2
20260906120030 64 270 0.0 3.5 0.00 0.00 0.00 87 1014.9
20260906114537 63 174 0.0 2.6 0.00 0.00 0.00 89 1014.8
20260906113030 62 240 0.0 1.7 0.00 0.00 0.00 90 1014.5
20260906111527 62 240 0.0 1.7 0.00 0.00 0.00 91 1014.4
20260906110038 61 240 0.0 1.7 0.00 0.00 0.00 91 1014.3
20260906104527 61 240 0.0 0.0 0.00 0.00 0.00 91 1014.0
20260906103024 61 240 0.0 1.7 0.00 0.00 0.00 91 1013.9
20260906101518 62 240 0.0 0.9 0.00 0.00 0.00 90 1013.8
20260906100016 62 240 0.0 0.0 0.00 0.00 0.00 90 1013.5
20260906094524 62 240 0.0 0.9 0.00 0.00 0.00 89 1013.4
20260906093010 62 240 0.0 0.0 0.00 0.00 0.00 89 1013.1
20260906091507 62 240 0.0 1.7 0.00 0.00 0.00 89 1013.0
20260906090032 62 240 0.0 1.7 0.00 0.00 0.00 89 1012.7
20260906084534 62 240 0.0 1.7 0.00 0.00 0.00 89 1012.7
20260906083023 62 264 0.0 0.0 0.00 0.00 0.00 89 1012.4
20260906081539 62 265 0.0 1.7 0.00 0.00 0.00 89 1012.4
20260906080018 63 264 0.0 0.0 0.00 0.00 0.00 88 1012.4
20260906074513 63 264 0.0 0.0 0.00 0.00 0.00 88 1012.4
20260906073012 63 264 0.0 0.0 0.00 0.00 0.00 87 1012.3
20260906071531 63 265 0.0 0.0 0.00 0.00 0.00 87 1012.5
20260906070032 63 265 0.0 0.0 0.00 0.00 0.00 87 1012.3
20260906064530 63 265 0.0 0.0 0.00 0.00 0.00 87 1012.4
20260906063031 63 265 0.0 0.0 0.00 0.00 0.00 87 1012.5
20260906061534 64 264 0.0 0.0 0.00 0.00 0.00 86 1012.5
20260906060023 64 264 0.0 0.0 0.00 0.00 0.00 86 1012.7
20260906054520 64 264 0.0 1.7 0.00 0.00 0.00 87 1012.7
20260906053017 64 264 0.0 0.0 0.00 0.00 0.00 88 1012.8
20260906051532 64 264 0.0 0.0 0.00 0.00 0.00 88 1012.9
20260906050033 64 264 0.0 0.0 0.00 0.00 0.00 88 1012.9
20260906044535 63 264 0.0 0.0 0.00 0.00 0.00 88 1012.9
20260906043029 64 264 0.0 0.0 0.00 0.00 0.00 88 1012.9
20260906041528 64 264 0.0 0.0 0.00 0.00 0.00 87 1012.9
20260906040033 65 265 0.0 0.0 0.00 0.01 0.00 87 1012.9
20260906034524 65 264 0.0 0.0 0.00 0.02 0.01 86 1012.8
20260906033019 65 264 0.0 0.0 0.00 0.12 0.01 85 1012.9
20260906031531 66 265 0.0 0.0 0.00 0.12 0.01 83 1012.8
20260906030011 66 265 0.0 0.0 0.00 0.12 0.01 83 1012.7
20260906024508 66 265 0.0 0.0 0.00 0.12 0.01 83 1012.7
20260906023005 66 264 0.0 0.0 0.00 0.12 0.01 82 1012.7
20260906021505 67 265 0.0 0.0 0.00 0.12 0.01 81 1012.6
20260906020031 67 265 0.0 0.0 0.00 0.12 0.01 81 1012.5
20260906014529 66 265 0.0 0.0 0.00 0.12 0.01 82 1012.4
20260906013036 66 265 0.0 0.0 0.00 0.12 0.01 82 1012.3
20260906011516 67 264 0.0 0.0 0.00 0.12 0.01 81 1012.1
20260906010013 67 264 0.0 0.0 0.00 0.12 0.01 79 1012.0
20260906004512 68 264 0.0 0.0 0.00 0.12 0.01 78 1011.9
20260906003008 68 264 0.0 0.0 0.00 0.12 0.01 77 1011.8
20260906001533 69 265 0.0 0.0 0.00 0.12 0.01 77 1011.6
20260906000030 70 265 0.0 0.0 0.00 0.12 0.01 76 1011.5
20260905234524 71 265 0.0 0.0 0.00 0.12 0.01 72 1011.3
20260905233030 72 265 0.0 0.0 0.00 0.12 0.01 67 1011.1
20260905231518 73 264 0.0 0.0 0.00 0.12 0.01 67 1011.1
20260905230018 74 248 0.0 1.7 0.00 0.12 0.01 63 1011.0
20260905224512 74 243 0.0 0.9 0.00 0.12 0.01 62 1011.0
20260905223028 75 197 0.0 1.7 0.00 0.12 0.01 63 1010.9
20260905221542 76 176 0.0 1.7 0.00 0.12 0.01 59 1010.8
20260905220030 77 268 0.9 4.3 0.00 0.12 0.01 55 1010.6
20260905214528 78 300 0.0 5.2 0.00 0.12 0.01 51 1010.6
20260905213028 78 30 0.9 3.5 0.00 0.12 0.01 55 1010.5
20260905211539 78 284 0.0 5.2 0.00 0.12 0.01 53 1010.6
20260905210021 78 340 0.0 3.5 0.00 0.12 0.01 56 1010.4
20260905204514 79 276 0.0 3.5 0.00 0.12 0.01 56 1010.4
20260905203037 79 73 0.0 3.5 0.00 0.12 0.01 55 1010.4
20260905201537 79 272 0.0 4.3 0.00 0.12 0.01 54 1010.5
20260905200048 79 51 0.0 5.2 0.00 0.12 0.01 55 1010.7
20260905194534 79 330 0.0 1.7 0.00 0.12 0.01 59 1010.8
20260905193029 78 139 0.9 3.5 0.00 0.12 0.01 57 1010.9
20260905191526 79 319 0.9 4.3 0.00 0.12 0.01 53 1011.1
20260905190025 78 72 0.9 4.3 0.00 0.12 0.01 60 1011.1
20260905184502 78 126 0.0 3.5 0.00 0.12 0.01 57 1011.2
20260905183016 78 229 0.0 3.5 0.00 0.12 0.01 61 1011.2
20260905181516 78 240 0.0 1.7 0.00 0.12 0.01 58 1011.3
20260905180010 78 351 0.0 1.7 0.00 0.12 0.01 61 1011.4
20260905174508 78 101 0.9 3.5 0.00 0.12 0.01 59 1011.6
20260905173009 79 310 0.9 3.5 0.00 0.12 0.01 60 1011.7
20260905171511 78 229 1.7 4.3 0.00 0.12 0.01 56 1011.6
20260905170003 78 260 1.7 4.3 0.00 0.12 0.01 58 1011.7
20260905164503 77 264 0.9 3.5 0.00 0.12 0.01 67 1011.7
20260905163025 77 360 0.9 1.7 0.00 0.12 0.01 61 1012.0
20260905161521 77 64 0.0 3.5 0.00 0.12 0.01 61 1012.1
20260905160027 76 219 0.0 3.5 0.00 0.12 0.01 68 1012.2
20260905154548 75 186 0.0 7.0 0.00 0.12 0.01 69 1012.2
20260905153012 76 243 0.0 5.2 0.00 0.12 0.01 69 1012.3
20260905151505 75 127 0.9 2.6 0.00 0.12 0.01 71 1012.3
20260905150006 74 228 0.0 3.5 0.00 0.12 0.01 74 1012.4
20260905144504 73 283 0.0 2.6 0.00 0.12 0.01 76 1012.2
20260905143025 73 65 0.0 4.3 0.00 0.12 0.01 77 1012.2